EFW44X EGKK-LGRP

Flight info

Callsign EFW44X
Flight time N/A
Altitude 35000
Route MIMFO Y312 DVR UL9 KONAN DCT KOK DCT REMBA DCT LIRSU DCT KRH DCT BATUB DCT TIRUL M738 NATAG DCT LORLO DCT BORMI DCT AKADO DCT IXONA DCT MINTU DCT INTIT DCT POD DCT ENFAR/N0450F370 DCT TALAS DCT TSL DCT MES UN139 LURUS UL995 CODIC
Aircraft A320/M-SDE3FGHIRWY/LB1

Departure

Time 2026-04-15 09:56
Airport London Gatwick Airport (EGKK)

Arrival

Time N/A
Airport Rhodes International Airport "Diagoras" (LGRP)
Time Latitude Longitude Altitude Speed Heading
2026-04-15 09:36 51.15554 -0.17097 210 ft 0 kts 168°
2026-04-15 09:37 51.15552 -0.17100 204 ft 0 kts 168°
2026-04-15 09:49 51.15576 -0.17107 215 ft 4 kts 173°
2026-04-15 09:49 51.15603 -0.17110 212 ft 4 kts 185°
2026-04-15 09:49 51.15628 -0.17100 213 ft 4 kts 218°
2026-04-15 09:50 51.15637 -0.17083 209 ft 0 kts 257°
2026-04-15 09:51 51.15637 -0.17087 212 ft 2 kts 257°
2026-04-15 09:52 51.15619 -0.17209 213 ft 16 kts 255°
2026-04-15 09:52 51.15583 -0.17320 206 ft 5 kts 187°
2026-04-15 09:52 51.15572 -0.17366 206 ft 11 kts 258°
2026-04-15 09:52 51.15489 -0.17417 204 ft 15 kts 168°
2026-04-15 09:53 51.15383 -0.17380 213 ft 16 kts 168°
2026-04-15 09:53 51.15271 -0.17337 207 ft 17 kts 157°
2026-04-15 09:53 51.15255 -0.17169 204 ft 17 kts 76°
2026-04-15 09:53 51.15281 -0.16977 204 ft 18 kts 79°
2026-04-15 09:54 51.15283 -0.16845 208 ft 0 kts 123°
2026-04-15 09:54 51.15282 -0.16844 208 ft 1 kts 123°
2026-04-15 09:54 51.15274 -0.16829 209 ft 5 kts 133°
2026-04-15 09:54 51.15200 -0.16793 204 ft 17 kts 168°
2026-04-15 09:55 51.15120 -0.16824 205 ft 5 kts 267°
2026-04-15 09:55 51.15106 -0.16909 205 ft 22 kts 256°
2026-04-15 09:55 51.15026 -0.17503 213 ft 85 kts 257°
2026-04-15 09:55 51.14860 -0.18695 202 ft 134 kts 258°
2026-04-15 09:56 51.14642 -0.20337 333 ft 159 kts 254°
2026-04-15 09:56 51.14407 -0.22075 807 ft 164 kts 264°
2026-04-15 09:56 51.13886 -0.25871 1441 ft 198 kts 254°
2026-04-15 09:57 51.13712 -0.28118 1960 ft 212 kts 272°
2026-04-15 09:57 51.14239 -0.30367 2580 ft 227 kts 303°
2026-04-15 09:57 51.15509 -0.31934 3254 ft 241 kts 337°
2026-04-15 09:57 51.17198 -0.32142 3895 ft 252 kts 13°
2026-04-15 09:58 51.18708 -0.30739 4525 ft 256 kts 53°
2026-04-15 09:58 51.19297 -0.29101 4949 ft 252 kts 79°
2026-04-15 09:58 51.19654 -0.26375 5649 ft 252 kts 85°
2026-04-15 09:58 51.19965 -0.23658 6418 ft 253 kts 85°
2026-04-15 09:59 51.20284 -0.20886 7178 ft 256 kts 85°
2026-04-15 09:59 51.20627 -0.17998 7549 ft 277 kts 84°
2026-04-15 09:59 51.21019 -0.14885 7998 ft 292 kts 83°
2026-04-15 09:59 51.21443 -0.11677 8656 ft 299 kts 82°
2026-04-15 10:00 51.21883 -0.08409 9354 ft 304 kts 82°
2026-04-15 10:00 51.22323 -0.05094 10045 ft 308 kts 82°
2026-04-15 10:00 51.22773 -0.01669 10378 ft 326 kts 82°
2026-04-15 10:00 51.23246 0.02007 10357 ft 348 kts 83°
2026-04-15 10:01 51.23744 0.05896 10454 ft 369 kts 82°
2026-04-15 10:01 51.24273 0.10028 10569 ft 389 kts 82°
2026-04-15 10:01 51.24827 0.14298 10979 ft 396 kts 82°
2026-04-15 10:01 51.25293 0.18637 11491 ft 398 kts 89°
2026-04-15 10:02 51.25283 0.23040 12021 ft 396 kts 100°
2026-04-15 10:02 51.24959 0.27424 12553 ft 400 kts 101°
2026-04-15 10:02 51.24620 0.31849 13081 ft 404 kts 101°
2026-04-15 10:02 51.24274 0.36312 13632 ft 407 kts 101°
2026-04-15 10:03 51.23924 0.40812 14151 ft 410 kts 101°
2026-04-15 10:03 51.23570 0.45349 14690 ft 413 kts 101°
2026-04-15 10:03 51.23216 0.49917 15204 ft 416 kts 101°
2026-04-15 10:03 51.22862 0.54516 15719 ft 419 kts 101°
2026-04-15 10:04 51.22506 0.59156 16267 ft 422 kts 101°
2026-04-15 10:04 51.22143 0.63820 16837 ft 426 kts 101°
2026-04-15 10:04 51.21774 0.68524 17404 ft 429 kts 101°
2026-04-15 10:04 51.21402 0.73252 17951 ft 432 kts 101°
2026-04-15 10:05 51.21023 0.78025 18462 ft 435 kts 101°
2026-04-15 10:05 51.20639 0.82828 18951 ft 438 kts 101°
2026-04-15 10:05 51.20247 0.87658 19432 ft 441 kts 101°
2026-04-15 10:05 51.19855 0.92527 19909 ft 444 kts 101°
2026-04-15 10:06 51.19463 0.97420 20390 ft 446 kts 101°
2026-04-15 10:06 51.19062 1.02344 20799 ft 449 kts 101°
2026-04-15 10:06 51.18656 1.07280 21172 ft 452 kts 101°
2026-04-15 10:06 51.18244 1.12263 21551 ft 454 kts 101°
2026-04-15 10:07 51.17834 1.17210 21911 ft 456 kts 101°
2026-04-15 10:07 51.17408 1.22308 22264 ft 459 kts 101°
2026-04-15 10:07 51.16983 1.27359 22600 ft 461 kts 101°
2026-04-15 10:07 51.16553 1.32429 22922 ft 463 kts 101°
2026-04-15 10:08 51.16133 1.37537 23250 ft 466 kts 100°
2026-04-15 10:08 51.15804 1.42630 23543 ft 469 kts 98°
2026-04-15 10:08 51.15553 1.47887 23840 ft 472 kts 96°
2026-04-15 10:08 51.15352 1.53041 24106 ft 473 kts 96°
2026-04-15 10:09 51.15153 1.58351 24429 ft 474 kts 96°
2026-04-15 10:09 51.14940 1.63583 24816 ft 473 kts 97°
2026-04-15 10:09 51.14704 1.68798 25196 ft 472 kts 97°
2026-04-15 10:09 51.14453 1.73934 25576 ft 471 kts 97°
2026-04-15 10:10 51.14184 1.79131 25965 ft 471 kts 98°
2026-04-15 10:10 51.13906 1.84320 26353 ft 470 kts 98°
2026-04-15 10:10 51.13627 1.89502 26765 ft 470 kts 98°
2026-04-15 10:10 51.13348 1.94688 27156 ft 469 kts 97°
2026-04-15 10:11 51.13073 1.99859 27560 ft 469 kts 97°
2026-04-15 10:11 51.12801 2.05029 27977 ft 468 kts 97°
2026-04-15 10:11 51.12530 2.10186 28382 ft 468 kts 97°
2026-04-15 10:11 51.12257 2.15338 28786 ft 468 kts 97°
2026-04-15 10:12 51.11984 2.20499 29196 ft 467 kts 97°
2026-04-15 10:12 51.11709 2.25653 29608 ft 467 kts 97°
2026-04-15 10:12 51.11429 2.30791 30027 ft 467 kts 98°
2026-04-15 10:12 51.11144 2.35934 30398 ft 466 kts 98°
2026-04-15 10:13 51.10854 2.41066 30738 ft 466 kts 97°
2026-04-15 10:13 51.10562 2.46200 31101 ft 465 kts 97°
2026-04-15 10:13 51.10271 2.51318 31458 ft 465 kts 97°
2026-04-15 10:13 51.09979 2.56434 31802 ft 464 kts 97°
2026-04-15 10:14 51.09685 2.61543 32152 ft 464 kts 98°
2026-04-15 10:14 51.09194 2.66594 32511 ft 461 kts 106°
2026-04-15 10:14 51.08340 2.71498 32858 ft 460 kts 109°
2026-04-15 10:14 51.07453 2.76383 33207 ft 459 kts 109°
2026-04-15 10:15 51.06569 2.81253 33552 ft 459 kts 109°
2026-04-15 10:15 51.05682 2.86133 33891 ft 459 kts 108°
2026-04-15 10:15 51.04794 2.91017 34135 ft 461 kts 108°
2026-04-15 10:15 51.03900 2.95917 34385 ft 461 kts 109°
2026-04-15 10:16 51.03003 3.00800 34650 ft 461 kts 109°
2026-04-15 10:16 51.02102 3.05692 34912 ft 461 kts 109°
2026-04-15 10:16 51.01202 3.10575 35102 ft 461 kts 109°
2026-04-15 10:17 50.99378 3.20442 35158 ft 472 kts 109°
2026-04-15 10:17 50.97502 3.30547 35145 ft 481 kts 108°
2026-04-15 10:18 50.95597 3.40758 35163 ft 483 kts 108°
2026-04-15 10:18 50.93688 3.50977 35163 ft 483 kts 108°
2026-04-15 10:19 50.91761 3.61187 35166 ft 484 kts 108°
2026-04-15 10:19 50.89813 3.71389 35177 ft 484 kts 108°
2026-04-15 10:20 50.87862 3.81588 35190 ft 484 kts 108°
2026-04-15 10:20 50.85925 3.91715 35192 ft 484 kts 108°
2026-04-15 10:21 50.83963 4.01890 35205 ft 484 kts 108°
2026-04-15 10:21 50.81992 4.12060 35213 ft 484 kts 108°
2026-04-15 10:22 50.80004 4.22230 35208 ft 484 kts 108°
2026-04-15 10:22 50.78006 4.32387 35222 ft 484 kts 108°
2026-04-15 10:23 50.76002 4.42545 35229 ft 484 kts 108°
2026-04-15 10:23 50.73989 4.52689 35231 ft 484 kts 108°
2026-04-15 10:24 50.71974 4.62827 35229 ft 484 kts 108°
2026-04-15 10:24 50.69944 4.72965 35218 ft 484 kts 107°
2026-04-15 10:25 50.67900 4.83087 35214 ft 484 kts 107°
2026-04-15 10:25 50.65720 4.93059 35220 ft 484 kts 115°
2026-04-15 10:26 50.62844 5.02652 35228 ft 484 kts 115°
2026-04-15 10:26 50.59966 5.12239 35233 ft 484 kts 115°
2026-04-15 10:27 50.57073 5.21799 35233 ft 485 kts 115°
2026-04-15 10:27 50.54156 5.31373 35227 ft 485 kts 115°
2026-04-15 10:28 50.51245 5.40950 35222 ft 485 kts 115°
2026-04-15 10:28 50.48324 5.50501 35227 ft 485 kts 115°
2026-04-15 10:29 50.45391 5.60038 35236 ft 485 kts 115°
2026-04-15 10:29 50.42447 5.69575 35234 ft 485 kts 115°
2026-04-15 10:30 50.39505 5.79101 35227 ft 485 kts 115°
2026-04-15 10:30 50.36545 5.88601 35229 ft 485 kts 115°
2026-04-15 10:31 50.33574 5.98101 35232 ft 485 kts 115°
2026-04-15 10:31 50.30606 6.07579 35236 ft 485 kts 115°
2026-04-15 10:32 50.27618 6.17055 35239 ft 485 kts 115°
2026-04-15 10:32 50.24647 6.26453 35226 ft 485 kts 115°
2026-04-15 10:33 50.21668 6.35897 35226 ft 485 kts 115°
2026-04-15 10:33 50.18524 6.45208 35231 ft 486 kts 122°
2026-04-15 10:34 50.14297 6.53470 35227 ft 488 kts 129°
2026-04-15 10:34 50.09925 6.61545 35247 ft 488 kts 129°
2026-04-15 10:35 50.05546 6.69625 35251 ft 488 kts 129°
2026-04-15 10:35 50.01165 6.77687 35253 ft 488 kts 129°
2026-04-15 10:36 49.96765 6.85747 35255 ft 488 kts 128°
2026-04-15 10:36 49.92370 6.93782 35247 ft 488 kts 128°
2026-04-15 10:37 49.87971 7.01801 35233 ft 488 kts 128°
2026-04-15 10:37 49.83565 7.09818 35238 ft 488 kts 128°
2026-04-15 10:38 49.79155 7.17823 35238 ft 489 kts 129°
2026-04-15 10:38 49.74726 7.25810 35260 ft 489 kts 128°
2026-04-15 10:39 49.70292 7.33781 35249 ft 489 kts 128°
2026-04-15 10:39 49.65864 7.41748 35257 ft 489 kts 128°
2026-04-15 10:40 49.61422 7.49714 35253 ft 489 kts 128°
2026-04-15 10:40 49.56969 7.57653 35255 ft 489 kts 128°
2026-04-15 10:41 49.52507 7.65565 35268 ft 490 kts 128°
2026-04-15 10:41 49.48043 7.73478 35252 ft 490 kts 128°
2026-04-15 10:42 49.43577 7.81381 35253 ft 490 kts 128°
2026-04-15 10:42 49.39103 7.89269 35256 ft 490 kts 128°
2026-04-15 10:43 49.34650 7.97100 35258 ft 490 kts 128°
2026-04-15 10:43 49.30160 8.04965 35274 ft 490 kts 128°
2026-04-15 10:44 49.26394 8.11539 35269 ft 490 kts 128°
2026-04-15 10:44 49.21888 8.19386 35252 ft 490 kts 127°
2026-04-15 10:45 49.17420 8.27170 35252 ft 490 kts 127°
2026-04-15 10:45 49.12876 8.35032 35252 ft 490 kts 128°
2026-04-15 10:46 49.08357 8.42825 35253 ft 490 kts 128°
2026-04-15 10:46 49.03833 8.50620 35249 ft 490 kts 128°
2026-04-15 10:47 48.99164 8.58207 35243 ft 494 kts 136°
2026-04-15 10:47 48.93569 8.64338 35244 ft 497 kts 143°
2026-04-15 10:48 48.87835 8.70207 35249 ft 497 kts 143°
2026-04-15 10:48 48.82100 8.76062 35265 ft 497 kts 143°
2026-04-15 10:49 48.76369 8.81897 35256 ft 496 kts 143°
2026-04-15 10:49 48.70681 8.87676 35260 ft 495 kts 143°
2026-04-15 10:50 48.64965 8.93487 35264 ft 495 kts 143°
2026-04-15 10:50 48.59249 8.99275 35263 ft 494 kts 143°
2026-04-15 10:51 48.53538 9.05029 35263 ft 494 kts 143°
2026-04-15 10:51 48.47809 9.10784 35269 ft 494 kts 143°
2026-04-15 10:52 48.42084 9.16534 35259 ft 494 kts 143°
2026-04-15 10:52 48.36361 9.22268 35247 ft 494 kts 143°
2026-04-15 10:53 48.30628 9.27986 35240 ft 495 kts 143°
2026-04-15 10:53 48.24886 9.33688 35236 ft 495 kts 143°
2026-04-15 10:54 48.19144 9.39383 35237 ft 494 kts 143°
2026-04-15 10:54 48.13444 9.45026 35254 ft 494 kts 143°
2026-04-15 10:55 48.07655 9.50734 35249 ft 495 kts 143°
2026-04-15 10:55 48.01946 9.56348 35239 ft 495 kts 143°
2026-04-15 10:56 47.96252 9.62067 35224 ft 494 kts 142°
2026-04-15 10:56 47.90562 9.67948 35242 ft 494 kts 141°
2026-04-15 10:57 47.84949 9.73737 35234 ft 494 kts 142°
2026-04-15 10:57 47.76434 9.82387 35240 ft 494 kts 141°
2026-04-15 10:58 47.70747 9.88128 35240 ft 494 kts 141°
2026-04-15 10:58 47.65054 9.93864 35235 ft 494 kts 141°
2026-04-15 10:59 47.59366 9.99589 35227 ft 495 kts 141°
2026-04-15 10:59 47.53672 10.05307 35225 ft 494 kts 141°
2026-04-15 11:00 47.47981 10.11016 35221 ft 493 kts 141°
2026-04-15 11:00 47.42312 10.16677 35198 ft 493 kts 141°
2026-04-15 11:01 47.36619 10.22342 35184 ft 493 kts 141°
2026-04-15 11:01 47.30933 10.27994 35182 ft 492 kts 141°
2026-04-15 11:02 47.25256 10.33623 35166 ft 492 kts 141°
2026-04-15 11:02 47.19574 10.39241 35188 ft 492 kts 141°
2026-04-15 11:03 47.13899 10.44838 35175 ft 491 kts 141°
2026-04-15 11:03 47.08217 10.50410 35173 ft 492 kts 142°
2026-04-15 11:04 47.01947 10.54607 35170 ft 502 kts 159°
2026-04-15 11:04 46.95267 10.57609 35182 ft 502 kts 159°
2026-04-15 11:05 46.88591 10.60614 35186 ft 502 kts 159°
2026-04-15 11:05 46.81920 10.63605 35190 ft 502 kts 159°
2026-04-15 11:06 46.75245 10.66603 35211 ft 502 kts 158°
2026-04-15 11:06 46.68851 10.70437 35205 ft 494 kts 148°
2026-04-15 11:07 46.62693 10.74875 35197 ft 493 kts 148°
2026-04-15 11:07 46.56530 10.79287 35194 ft 493 kts 148°
2026-04-15 11:08 46.50364 10.83675 35192 ft 493 kts 148°
2026-04-15 11:08 46.44206 10.88043 35183 ft 493 kts 148°
2026-04-15 11:09 46.38090 10.92386 35270 ft 491 kts 149°
2026-04-15 11:09 46.31961 10.96730 35276 ft 490 kts 149°
2026-04-15 11:10 46.25841 11.01056 35275 ft 489 kts 149°
2026-04-15 11:10 46.19731 11.05366 35252 ft 488 kts 149°
2026-04-15 11:11 46.13625 11.09655 35235 ft 488 kts 149°
2026-04-15 11:11 46.07545 11.13974 35208 ft 485 kts 145°
2026-04-15 11:12 46.02267 11.19788 35211 ft 473 kts 129°
2026-04-15 11:12 45.98230 11.27123 35192 ft 467 kts 122°
2026-04-15 11:13 45.94353 11.34604 35188 ft 467 kts 122°
2026-04-15 11:13 45.90462 11.42081 35179 ft 466 kts 122°
2026-04-15 11:14 45.86589 11.49532 35182 ft 466 kts 122°
2026-04-15 11:14 45.82704 11.56991 35180 ft 466 kts 122°
2026-04-15 11:15 45.78815 11.64430 35179 ft 466 kts 122°
2026-04-15 11:15 45.74923 11.71863 35175 ft 466 kts 122°
2026-04-15 11:16 45.71022 11.79275 35171 ft 466 kts 122°
2026-04-15 11:16 45.69067 11.82983 35478 ft 466 kts 126°
2026-04-15 11:16 45.67162 11.86593 35302 ft 455 kts 128°
2026-04-15 11:17 45.65277 11.90160 35150 ft 447 kts 128°
2026-04-15 11:17 45.63403 11.93703 35166 ft 446 kts 128°
2026-04-15 11:17 45.59666 12.00763 35165 ft 445 kts 128°
2026-04-15 11:18 45.55931 12.07808 35165 ft 445 kts 128°
2026-04-15 11:18 45.52186 12.14840 35164 ft 445 kts 128°
2026-04-15 11:19 45.48444 12.21851 35174 ft 444 kts 128°
2026-04-15 11:19 45.44697 12.28853 35178 ft 444 kts 128°
2026-04-15 11:20 45.40949 12.35837 35178 ft 444 kts 128°
2026-04-15 11:20 45.37200 12.42810 35180 ft 443 kts 128°
2026-04-15 11:21 45.33451 12.49774 35168 ft 444 kts 128°
2026-04-15 11:21 45.29955 12.56926 35172 ft 444 kts 124°
2026-04-15 11:22 45.26668 12.64352 35161 ft 444 kts 123°
2026-04-15 11:22 45.23376 12.71770 35166 ft 444 kts 124°
2026-04-15 11:23 45.20013 12.79098 35168 ft 443 kts 125°
2026-04-15 11:23 45.16609 12.86413 35155 ft 444 kts 125°
2026-04-15 11:24 45.13206 12.93724 35154 ft 445 kts 125°
2026-04-15 11:24 45.09805 13.01052 35152 ft 445 kts 124°
2026-04-15 11:25 45.06404 13.08374 35156 ft 445 kts 124°
2026-04-15 11:25 45.02992 13.15690 35140 ft 446 kts 125°
2026-04-15 11:26 44.99569 13.23015 35136 ft 447 kts 125°
2026-04-15 11:26 44.96127 13.30342 35135 ft 448 kts 125°
2026-04-15 11:27 44.92671 13.37676 35125 ft 448 kts 125°
2026-04-15 11:27 44.89220 13.45010 35129 ft 449 kts 125°
2026-04-15 11:28 44.85758 13.52356 35128 ft 450 kts 126°
2026-04-15 11:28 44.82337 13.59754 35134 ft 451 kts 123°
2026-04-15 11:29 44.79628 13.66033 35136 ft 452 kts 122°
2026-04-15 11:29 44.75884 13.74867 35145 ft 452 kts 123°
2026-04-15 11:30 44.72616 13.82435 35140 ft 453 kts 123°
2026-04-15 11:30 44.69844 13.88761 35147 ft 453 kts 123°
2026-04-15 11:31 44.66552 13.96246 35149 ft 454 kts 123°
2026-04-15 11:31 44.63244 14.03786 35149 ft 453 kts 123°
2026-04-15 11:32 44.59932 14.11320 35129 ft 454 kts 124°
2026-04-15 11:32 44.56612 14.18850 35134 ft 454 kts 124°
2026-04-15 11:33 44.53285 14.26375 35134 ft 454 kts 124°
2026-04-15 11:33 44.49953 14.33888 35136 ft 454 kts 124°
2026-04-15 11:34 44.46608 14.41394 35130 ft 454 kts 124°
2026-04-15 11:34 44.43264 14.48875 35142 ft 453 kts 124°
2026-04-15 11:35 44.39923 14.56343 35138 ft 452 kts 124°
2026-04-15 11:35 44.36584 14.63792 35140 ft 452 kts 124°
2026-04-15 11:36 44.33272 14.71189 35136 ft 452 kts 123°
2026-04-15 11:36 44.30167 14.78825 35134 ft 452 kts 120°
2026-04-15 11:37 44.27204 14.86558 35129 ft 452 kts 120°
2026-04-15 11:37 44.24205 14.94273 35131 ft 452 kts 121°
2026-04-15 11:38 44.21147 15.01916 35124 ft 452 kts 121°
2026-04-15 11:38 44.18059 15.09570 35111 ft 455 kts 121°
2026-04-15 11:39 44.14956 15.17270 35123 ft 456 kts 120°
2026-04-15 11:39 44.11860 15.24959 35126 ft 455 kts 120°
2026-04-15 11:40 44.08756 15.32648 35127 ft 455 kts 120°
2026-04-15 11:40 44.05651 15.40321 35129 ft 455 kts 121°
2026-04-15 11:41 44.02535 15.47991 35131 ft 455 kts 121°
2026-04-15 11:41 43.99423 15.55640 35130 ft 455 kts 121°
2026-04-15 11:42 43.96331 15.63223 35135 ft 454 kts 121°
2026-04-15 11:42 43.93208 15.70845 35126 ft 454 kts 121°
2026-04-15 11:43 43.90086 15.78445 35133 ft 453 kts 121°
2026-04-15 11:43 43.86962 15.86020 35134 ft 452 kts 121°
2026-04-15 11:44 43.83842 15.93579 35130 ft 451 kts 121°
2026-04-15 11:44 43.80729 16.01116 35125 ft 450 kts 121°
2026-04-15 11:45 43.77616 16.08626 35131 ft 449 kts 121°
2026-04-15 11:45 43.74497 16.16114 35134 ft 449 kts 121°
2026-04-15 11:46 43.71383 16.23584 35130 ft 448 kts 121°
2026-04-15 11:46 43.68270 16.31030 35127 ft 447 kts 121°
2026-04-15 11:47 43.65153 16.38456 35119 ft 447 kts 120°
2026-04-15 11:47 43.62034 16.45875 35117 ft 446 kts 121°
2026-04-15 11:48 43.58922 16.53273 35123 ft 446 kts 120°
2026-04-15 11:48 43.55800 16.60667 35120 ft 446 kts 121°
2026-04-15 11:49 43.52671 16.68046 35134 ft 446 kts 121°
2026-04-15 11:49 43.49553 16.75374 35128 ft 446 kts 121°
2026-04-15 11:50 43.46419 16.82746 35127 ft 446 kts 121°
2026-04-15 11:50 43.43274 16.90125 35107 ft 447 kts 121°
2026-04-15 11:51 43.40115 16.97487 35108 ft 447 kts 121°
2026-04-15 11:51 43.36957 17.04851 35107 ft 447 kts 121°
2026-04-15 11:52 43.33790 17.12220 35115 ft 447 kts 122°
2026-04-15 11:52 43.30618 17.19567 35116 ft 447 kts 121°
2026-04-15 11:53 43.27439 17.26922 35111 ft 448 kts 121°
2026-04-15 11:53 43.24260 17.34264 35111 ft 448 kts 122°
2026-04-15 11:54 43.21072 17.41599 35106 ft 448 kts 121°
2026-04-15 11:54 43.17887 17.48934 35109 ft 448 kts 122°
2026-04-15 11:55 43.14690 17.56250 35107 ft 448 kts 122°
2026-04-15 11:55 43.11483 17.63562 35109 ft 448 kts 121°
2026-04-15 11:56 43.08279 17.70869 35109 ft 448 kts 121°
2026-04-15 11:56 43.05068 17.78170 35115 ft 448 kts 122°
2026-04-15 11:57 43.00244 17.89093 35106 ft 448 kts 122°
2026-04-15 11:58 42.97025 17.96375 35110 ft 448 kts 122°
2026-04-15 11:58 42.93793 18.03653 35117 ft 448 kts 122°
2026-04-15 11:59 42.90565 18.10922 35115 ft 448 kts 122°
2026-04-15 11:59 42.87339 18.18207 35119 ft 449 kts 122°
2026-04-15 12:00 42.84112 18.25488 35121 ft 449 kts 123°
2026-04-15 12:00 42.80875 18.32758 35124 ft 449 kts 123°
2026-04-15 12:01 42.77653 18.39968 35125 ft 449 kts 123°
2026-04-15 12:01 42.74404 18.47226 35117 ft 449 kts 123°
2026-04-15 12:02 42.71148 18.54475 35113 ft 450 kts 123°
2026-04-15 12:02 42.67884 18.61728 35113 ft 449 kts 124°
2026-04-15 12:03 42.64624 18.68966 35106 ft 449 kts 124°
2026-04-15 12:03 42.61361 18.76192 35093 ft 449 kts 124°
2026-04-15 12:04 42.58089 18.83412 35087 ft 449 kts 124°
2026-04-15 12:04 42.54807 18.90621 35082 ft 449 kts 124°
2026-04-15 12:05 42.51521 18.97827 35072 ft 449 kts 124°
2026-04-15 12:05 42.48233 19.05021 35077 ft 449 kts 124°
2026-04-15 12:06 42.44944 19.12213 35074 ft 449 kts 124°
2026-04-15 12:06 42.41644 19.19408 35069 ft 450 kts 125°
2026-04-15 12:07 42.38334 19.26599 35073 ft 450 kts 125°
2026-04-15 12:07 42.34972 19.33750 35076 ft 450 kts 126°
2026-04-15 12:08 42.31564 19.40853 35073 ft 450 kts 126°
2026-04-15 12:08 42.28152 19.47956 35057 ft 451 kts 126°
2026-04-15 12:09 42.24747 19.55074 35066 ft 452 kts 126°
2026-04-15 12:09 42.21334 19.62199 35060 ft 452 kts 127°
2026-04-15 12:10 42.17912 19.69327 35070 ft 453 kts 127°
2026-04-15 12:10 42.14485 19.76452 35071 ft 453 kts 127°
2026-04-15 12:11 42.11045 19.83568 35069 ft 454 kts 127°
2026-04-15 12:11 42.07612 19.90643 35061 ft 455 kts 127°
2026-04-15 12:12 42.04152 19.97774 35058 ft 456 kts 127°
2026-04-15 12:12 42.00680 20.04922 35066 ft 457 kts 127°
2026-04-15 12:13 41.97192 20.12073 35085 ft 458 kts 127°
2026-04-15 12:13 41.93693 20.19234 35070 ft 459 kts 127°
2026-04-15 12:14 41.90182 20.26409 35082 ft 460 kts 128°
2026-04-15 12:14 41.86657 20.33567 35089 ft 460 kts 128°
2026-04-15 12:15 41.83121 20.40735 35103 ft 461 kts 128°
2026-04-15 12:15 41.79586 20.47894 35100 ft 461 kts 128°
2026-04-15 12:16 41.76073 20.55021 35103 ft 461 kts 127°
2026-04-15 12:16 41.72548 20.62208 35116 ft 462 kts 128°
2026-04-15 12:17 41.69028 20.69393 35116 ft 461 kts 128°
2026-04-15 12:17 41.65504 20.76572 35131 ft 462 kts 128°
2026-04-15 12:18 41.61962 20.83740 35120 ft 462 kts 128°
2026-04-15 12:18 41.58410 20.90910 35135 ft 463 kts 128°
2026-04-15 12:19 41.55458 20.96872 35139 ft 463 kts 128°
2026-04-15 12:19 41.51894 21.04041 35152 ft 463 kts 128°
2026-04-15 12:20 41.48329 21.11203 35155 ft 463 kts 128°
2026-04-15 12:20 41.44754 21.18354 35154 ft 464 kts 128°
2026-04-15 12:21 41.41175 21.25507 35141 ft 464 kts 128°
2026-04-15 12:21 41.37593 21.32659 35152 ft 464 kts 128°
2026-04-15 12:22 41.34007 21.39792 35154 ft 464 kts 128°
2026-04-15 12:22 41.30412 21.46928 35165 ft 464 kts 128°
2026-04-15 12:23 41.26809 21.54050 35173 ft 464 kts 128°
2026-04-15 12:23 41.23202 21.61176 35178 ft 465 kts 128°
2026-04-15 12:24 41.19595 21.68273 35179 ft 464 kts 128°
2026-04-15 12:24 41.15978 21.75386 35180 ft 464 kts 128°
2026-04-15 12:25 41.12388 21.82423 35178 ft 464 kts 128°
2026-04-15 12:25 41.08726 21.89585 35174 ft 464 kts 129°
2026-04-15 12:26 41.05044 21.96527 35191 ft 462 kts 131°
2026-04-15 12:26 41.01147 22.03293 35202 ft 461 kts 132°
2026-04-15 12:27 40.97222 22.10006 35212 ft 461 kts 132°
2026-04-15 12:27 40.93342 22.16762 35200 ft 461 kts 131°
2026-04-15 12:28 40.89475 22.23551 35213 ft 461 kts 132°
2026-04-15 12:28 40.85606 22.30317 35210 ft 461 kts 132°
2026-04-15 12:29 40.81728 22.37077 35215 ft 461 kts 132°
2026-04-15 12:29 40.77847 22.43814 35211 ft 461 kts 133°
2026-04-15 12:30 40.73959 22.50547 35194 ft 462 kts 133°
2026-04-15 12:30 40.70299 22.56885 35015 ft 467 kts 133°
2026-04-15 12:30 40.68413 22.60533 32599 ft 504 kts 126°
2026-04-15 12:31 40.66797 22.64844 27304 ft 528 kts 117°
2026-04-15 12:31 40.65222 22.69492 29 ft 0 kts 126°
2026-04-15 12:31 40.65182 22.69561 28 ft 38 kts 135°